DMSP 5D-2 F13 DEB, 40415

Orbit data source: Space-Track

DMSP 5D-2 F13 DEB, 40415 is space debris in SSO originally from a launch on Fri, 24 Mar 1995 UTC launched from the Air Force Western Test Range (AFWTR). Debris objects in space refer to the collection of defunct objects orbiting the Earth. Examples of debris include non-operational satellites, rocket bodies, and fragments generated from explosions, collisions, or faulty payload assembly.

Loading next visibility...
Identifier
40415, 1995-015AC
Orbit
SSO
Country
Flag of USUS
Related business
Manufacturer
Unknown
Mission
Spacecraft
Bus & Motor
Unknown
Mass
Unknown
Launch date (UTC)
1995-03-24 (30 years ago)
Launch vehicle
Unknown
Launch site
Air Force Western Test Range (AFWTR)
Object type
Payload
Rocket body
Debris
Shape & HBR
Unknown
Radar Cross Section
Small (<0.1 m²)

Expand to show TLE details & history
Last TLE update: 1 day ago

TLE from 1 day ago
0 DMSP 5D-2 F13 DEB
1 40415U 95015AC  25241.78130162  .00002929  00000-0  12004-2 0  9997
2 40415  98.7460 263.9486 0007411 105.1632 255.0368 14.27899386544435
Epoch: 2025-08-29T18:45Z
TLE epoch observation values (Epoch: 2025-08-29T18:45:04.459Z)
Latitude
-0.00013°
Longitude
4.45502°
Altitude
803.062 km
Speed
7.451 km/s
True Right ascension
17h 35m 47s
True Declination
0° 00' 00"
Sunlit
Object was in daylight at epoch
Visualization orbit readout
Latitude
Unknown
Longitude
Unknown
Altitude
Unknown
Speed
Unknown
Apparent Right ascension
Unknown
Apparent Declination
Unknown
Sunlit
N/A
Visualization observer readout
Local Sidereal Time
16:42:01
Azimuth
Unknown
Elevation
Unknown
Doppler factor
Unknown
Orbital elements
Apogee altitude
801.227 km
Perigee altitude
790.594 km
Semi-major axis
7,174.048 km
Eccentricity
0.00074
Inclination
98.746°
RAAN
263.9486°
Arg. of periapsis
105.1632°
True anomaly
254.95478°
Mean anomaly
255.0368°
Eccentric anomaly
254.99579°
Mean motion
3.57188 °/min
Orbital period
100.79 mins
BSTAR
0.0012004
Loading maneuver chart data...
Computing Atmospheric mass density...

Documentation

Showing up to 5 results
|